Location: Middlebury
(44.0153°N, 73.1678°W)
Time: 14:33:46
(UTC-04:00)

QB50P2 - Pass Details

Date: 27 June 2024
Orbit: 562 x 579 km, 98.0° (Epoch: 14 July)

Event Time Altitude Azimuth Distance (km) Brightness Sun altitude
Rises 02:56:45 0° 24° (NNE) 2,764 ? -17.2°
Reaches altitude 10° 02:59:10 10° 37° (NE) 1,861 ? -17.0°
Maximum altitude 03:02:36 27° 96° (E) 1,104 ? -16.7°
Enters shadow 03:05:37 12° 151° (SSE) 1,713 ? -16.4°
